Skip Page Navigation
NASA JPL Caltech
NASA Logo - Jet Propulsion Laboratory + View the NASA Portal
+ Near-Earth Object (NEO) Program
Search JPL
JPL Home Earth Solar System Stars & Galaxies Technology
JPL Solar System Dynamics
BODIES ORBITS EPHEMERIDES TOOLS PHYSICAL DATA DISCOVERY FAQ SITE MAP
JPL Small-Body Database Browser
Search: [ help ]  
6714 Montreal (1990 OE2)
Classification: Main-belt Asteroid          SPK-ID: 2006714
Ephemeris | Orbit Diagram | Orbital Elements | Physical Parameters | Discovery Circumstances ]

[ show orbit diagram ]
Orbital Elements at Epoch 2456400.5 (2013-Apr-18.0) TDB
Reference: JPL 1 (heliocentric ecliptic J2000)
 Element Value Uncertainty (1-sigma)   Units 
e .1367543631445378 7.2135e-08  
a 2.553352075692881 2.1761e-08 AU
q 2.204170038697717 1.8196e-07 AU
i 14.56036474423133 8.9686e-06 deg
node 117.6689398890804 3.3764e-05 deg
peri 232.6696524336845 5.2075e-05 deg
M 174.8116607701682 4.1502e-05 deg
tp 2455676.843647175017
(2011-Apr-25.34364718)
0.00016956 JED
period 1490.268360069555
4.08
1.9052e-05
5.216e-08
d
yr
n .2415672302022153 3.0882e-09 deg/d
Q 2.902534112688045 2.4737e-08 AU
  Orbit Determination Parameters
   # obs. used (total)      870  
   data-arc span      12132 days (33.22 yr)  
   first obs. used      1980-01-22  
   last obs. used      2013-04-10  
   planetary ephem.      DE405  
   SB-pert. ephem.      SB405-CPV-2  
   condition code      0  
   fit RMS      .48679  
   data source      ORB  
   producer      Otto Matic  
   solution date      2013-Apr-29 13:22:59  

Additional Information
 Earth MOID = 1.22508 AU 
 T_jup = 3.381 
[ show covariance matrix ]

Ephemeris | Orbit Diagram | Orbital Elements | Physical Parameters | Discovery Circumstances ]

Physical Parameter Table
Parameter Symbol Value Units Sigma Reference Notes
absolute magnitude H 12.5 mag n/a PDS3 (MPC 28115)  

6714 Montréal           Discovered 1990 July 29 by H. E. Holt at Palomar.
Host city for the IAU General Assembly in 1979, Montreal has combined the best of English and French cultures since its founding in 1642. The city has a rich astronomical tradition, as can be seen in several outdoor works of art that emphasize the city's connection to the stars.
NOTE: some special characters may not display properly (any characters within {} are an attempt to place the proper accent above a character)
Reference: 20010309/MPCPages.arcLast Updated: 2009-05-11

Alternate Designations
 1990 OE2 = 1980 BR4 = 1985 GU = 1988 AN1 
Ephemeris | Orbit Diagram | Orbital Elements | Physical Parameters | Discovery Circumstances ]
ABOUT SSD CREDITS/AWARDS PRIVACY/COPYRIGHT GLOSSARY LINKS
FirstGov 2013-May-25 15:48 UT
(server date/time)  
NASA Home Page
Site Manager:   Donald K. Yeomans
Webmaster  Alan B. Chamberlin